Temp
6 5 6 6 5 6 5 5 5 5 4 4 4 4 4 4 4 4 4 4 4 4 4 5 5 6 6 6 7 7 7 7 7 7 7 7 7 6 7 8 9 9 10 10 10 10 10
5 5 5 5 5 5 5 5 5 5 4 4 3 3 3 3 3 3 3 3 3 3 4 4 5 5 6 7 6 7 8 7 7 7 7 7 6 6 6 7 7 8 9 9 9 9 9
5 5 5 5 5 5 5 5 4 4 4 4 3 3 3 3 3 3 3 3 3 3 3 4 4 5 6 7 6 6 7 7 7 7 8 8 7 5 6 6 7 7 8 8 8 8 9
5 5 4 5 5 5 4 4 4 4 4 4 3 3 3 3 3 3 2 3 3 3 3 3 4 5 7 6 6 7 7 7 8 7 7 8 7 7 6 6 7 7 7 7 8 9 10
4 4 4 4 4 4 4 4 4 4 4 3 3 3 3 3 3 3 2 3 2 3 3 3 4 4 6 6 7 7 7 7 6 8 7 7 6 6 7 6 6 7 7 9 9 10 11
4 4 4 4 4 4 4 4 3 4 3 3 3 3 3 3 3 2 2 2 2 2 2 3 3 3 5 5 5 7 6 7 7 6 5 5 5 5 6 6 7 9 10 10 10 11 11
3 3 4 4 4 4 4 4 4 4 3 3 3 3 3 3 2 2 2 2 2 2 2 3 3 4 3 4 6 7 6 6 6 6 6 4 4 5 6 7 8 8 9 9 9 10 10
3 3 3 4 4 4 4 3 3 3 3 2 2 2 1 2 2 1 2 2 2 1 1 3 4 3 4 3 5 5 5 4 5 5 4 4 5 6 6 7 7 7 8 8 9 9 9
2 2 3 3 3 4 3 3 2 2 2 2 2 2 1 1 1 1 1 1 1 1 0 1 3 3 2 4 4 5 4 5 3 3 4 5 6 7 7 7 7 7 7 7 7 7 7
2 1 2 1 2 2 2 3 2 2 1 2 1 0 1 1 1 1 1 1 1 0 -1 1 2 2 3 4 4 5 4 4 2 3 4 4 5 5 6 6 7 6 7 6 7 7 7
1 2 2 2 2 1 2 1 1 1 1 2 1 0 0 1 1 1 1 0 0 0 -1 3 1 0 1 3 2 4 3 2 3 3 3 5 6 5 5 5 5 5 5 5 5 5 5
0 0 1 1 1 1 2 1 1 1 0 0 0 0 -0 -0 0 0 0 -0 -1 -2 -2 1 1 1 1 1 1 1 2 2 2 2 2 3 4 3 4 3 3 3 3 3 4 4 5
1 1 -0 -0 -0 1 1 1 0 1 1 1 -0 -0 -1 -1 -1 -0 -0 -1 -3 -3 -1 1 1 1 1 2 1 1 1 1 2 3 3 4 4 4 4 4 3 3 3 3 4 5 5
1 1 2 0 -0 0 -0 0 1 0 -0 -0 -0 -0 -1 -2 -2 -1 -2 -3 -4 -3 -2 -0 1 0 1 2 1 2 1 2 2 3 2 3 3 4 4 3 3 2 2 3 3 4 6
1 1 1 2 1 1 2 1 0 -0 -0 -0 -1 -2 -3 -3 -3 -2 -3 -5 -4 -3 -3 -2 -1 -1 0 1 1 1 1 1 1 1 1 1 2 2 1 1 0 1 1 2 0 1 2
1 1 2 2 1 1 -0 1 -0 -0 -1 -3 -3 -4 -4 -4 -4 -4 -5 -5 -5 -5 -3 -2 -2 -2 0 1 0 -0 0 -0 -0 -1 -1 -1 -2 -1 -1 -0 0 -1 -0 -1 -0 -0 0
-0 0 0 -0 0 0 0 0 0 -2 -3 -3 -4 -5 -5 -5 -5 -6 -6 -6 -6 -6 -5 -4 -4 -3 -2 -2 -2 -1 -1 -1 -2 -3 -3 -3 -3 -3 -2 -2 -2 -1 -1 -1 -4 -3 -1
-1 -1 -0 -0 -0 0 0 -2 -3 -3 -3 -3 -5 -5 -6 -6 -7 -7 -7 -7 -6 -6 -6 -6 -4 -5 -4 -3 -3 -3 -3 -3 -3 -4 -4 -4 -4 -4 -4 -3 -3 -3 -2 -2 -3 -3 -3
-1 -1 -0 -1 -2 -3 -3 -3 -4 -4 -4 -5 -5 -5 -6 -7 -7 -7 -7 -7 -7 -7 -6 -6 -6 -6 -5 -5 -5 -5 -4 -4 -4 -5 -6 -6 -5 -5 -4 -3 -2 -2 -2 -2 -2 -2 -2
-5 -5 -5 -4 -4 -4 -5 -5 -5 -5 -6 -6 -6 -7 -8 -8 -7 -7 -8 -7 -7 -7 -7 -7 -7 -6 -6 -6 -6 -6 -6 -5 -6 -6 -7 -7 -7 -6 -5 -5 -4 -5 -4 -4 -3 -3 -3
-6 -5 -6 -5 -5 -5 -6 -6 -6 -7 -7 -7 -7 -8 -8 -8 -8 -8 -8 -8 -7 -8 -7 -7 -7 -7 -7 -7 -7 -6 -6 -6 -6 -7 -7 -7 -7 -7 -6 -6 -6 -6 -5 -5 -4 -4 -3
-6 -6 -6 -6 -7 -7 -7 -7 -7 -7 -8 -8 -8 -7 -7 -8 -8 -8 -8 -8 -8 -7 -8 -8 -8 -7 -8 -8 -8 -8 -8 -8 -8 -8 -8 -8 -8 -8 -8 -7 -6 -6 -6 -5 -5 -4 -4
-7 -7 -7 -7 -7 -7 -7 -8 -8 -8 -8 -8 -9 -9 -8 -8 -8 -8 -8 -8 -8 -8 -8 -8 -8 -8 -8 -8 -8 -9 -9 -9 -9 -9 -9 -9 -9 -9 -8 -8 -8 -8 -7 -6 -5 -5 -4
-7 -7 -7 -7 -8 -8 -8 -8 -9 -9 -9 -9 -9 -9 -9 -9 -9 -9 -9 -9 -8 -8 -8 -8 -9 -9 -9 -9 -10 -10 -10 -10 -9 -9 -9 -9 -9 -9 -9 -9 -8 -7 -7 -6 -5 -5 -6
-8 -8 -8 -8 -9 -9 -9 -9 -10 -10 -9 -9 -10 -10 -9 -10 -10 -10 -10 -9 -9 -9 -10 -9 -9 -10 -10 -10 -10 -10 -10 -9 -8 -8 -8 -8 -8 -9 -9 -8 -8 -7 -7 -6 -7 -7 -6
-8 -8 -9 -9 -9 -9 -10 -10 -9 -10 -9 -10 -10 -10 -9 -9 -10 -10 -10 -10 -10 -10 -10 -10 -10 -10 -10 -11 -11 -10 -9 -8 -7 -6 -6 -6 -7 -9 -9 -8 -7 -6 -6 -6 -5 -5 -6
-9 -10 -10 -10 -10 -10 -10 -10 -10 -10 -10 -10 -10 -10 -10 -10 -10 -10 -10 -10 -10 -10 -10 -10 -10 -11 -11 -11 -11 -10 -9 -8 -8 -7 -7 -7 -8 -8 -8 -8 -8 -7 -6 -6 -6 -6 -6
-10 -10 -10 -10 -11 -11 -11 -11 -11 -11 -10 -10 -11 -11 -10 -10 -11 -10 -11 -11 -11 -11 -11 -11 -11 -11 -11 -11 -11 -10 -9 -9 -9 -8 -8 -8 -8 -8 -8 -8 -7 -7 -8 -7 -6 -6 -7
-11 -11 -11 -11 -11 -11 -11 -11 -11 -11 -11 -11 -11 -11 -11 -11 -11 -11 -11 -12 -12 -11 -12 -12 -11 -11 -11 -11 -11 -10 -10 -11 -10 -10 -9 -9 -8 -9 -9 -8 -8 -8 -9 -8 -8 -8 -7
Height
3074 3076 3080 3084 3086 3089 3091 3093 3095 3097 3098 3099 3101 3104 3106 3108 3108 3109 3110 3110 3111 3110 3110 3108 3107 3106 3105 3104 3104 3101 3102 3102 3102 3102 3102 3103 3103 3104 3104 3105 3105 3104 3105 3105 3104 3103 3103
3065 3068 3069 3075 3078 3080 3083 3085 3088 3089 3091 3092 3095 3097 3100 3101 3102 3104 3104 3104 3105 3106 3105 3105 3102 3100 3099 3098 3098 3098 3097 3097 3098 3097 3097 3098 3099 3100 3098 3098 3099 3099 3098 3097 3098 3097 3097
3054 3058 3059 3063 3069 3070 3074 3077 3079 3082 3083 3085 3087 3090 3093 3094 3096 3097 3098 3099 3099 3101 3100 3100 3098 3094 3093 3094 3094 3092 3094 3093 3092 3092 3092 3093 3093 3094 3094 3094 3092 3094 3093 3091 3088 3090 3089
3041 3045 3049 3053 3058 3062 3065 3068 3071 3073 3076 3077 3080 3083 3086 3087 3089 3091 3091 3093 3094 3095 3097 3094 3094 3090 3085 3089 3087 3087 3087 3088 3087 3087 3087 3086 3086 3087 3088 3090 3088 3087 3088 3084 3083 3082 3081
3029 3033 3039 3042 3048 3052 3056 3059 3061 3064 3067 3070 3072 3076 3078 3080 3082 3084 3085 3087 3087 3089 3090 3090 3090 3085 3082 3081 3082 3082 3082 3082 3082 3081 3082 3082 3081 3082 3084 3083 3087 3082 3079 3079 3077 3078 3077
3016 3021 3027 3032 3036 3041 3046 3049 3051 3055 3057 3061 3063 3067 3070 3072 3075 3076 3078 3079 3080 3082 3083 3084 3083 3083 3081 3080 3078 3078 3077 3077 3077 3077 3077 3077 3077 3077 3077 3081 3079 3078 3074 3072 3071 3073 3071
3003 3008 3014 3019 3024 3029 3034 3039 3042 3044 3047 3050 3054 3057 3061 3065 3067 3068 3072 3074 3077 3076 3073 3076 3075 3074 3073 3074 3073 3074 3073 3073 3071 3071 3072 3075 3075 3072 3074 3075 3075 3074 3074 3072 3071 3071 3067
2986 2993 3000 3005 3010 3016 3022 3027 3031 3034 3036 3040 3043 3048 3051 3055 3058 3060 3064 3066 3071 3067 3063 3064 3066 3062 3068 3065 3064 3069 3069 3069 3067 3064 3067 3068 3064 3066 3068 3071 3069 3068 3067 3065 3064 3069 3067
2971 2977 2984 2991 2996 3002 3009 3014 3018 3021 3026 3030 3034 3039 3044 3045 3049 3053 3056 3060 3057 3060 3054 3051 3054 3052 3056 3058 3054 3060 3060 3061 3062 3062 3062 3061 3059 3062 3062 3063 3062 3061 3064 3060 3059 3063 3060
2958 2963 2969 2975 2982 2988 2997 3002 3004 3009 3013 3018 3023 3027 3030 3033 3043 3044 3044 3045 3047 3049 3048 3041 3041 3038 3044 3049 3044 3050 3048 3054 3055 3054 3059 3054 3054 3053 3055 3056 3060 3048 3059 3057 3055 3056 3051
2941 2948 2957 2961 2966 2974 2981 2987 2990 2996 3002 3008 3011 3015 3018 3025 3026 3028 3033 3033 3038 3040 3045 3039 3034 3030 3036 3042 3040 3041 3042 3045 3046 3051 3055 3052 3052 3051 3049 3050 3051 3048 3049 3047 3051 3047 3050
2926 2934 2940 2948 2956 2961 2968 2974 2979 2984 2989 2995 2998 3002 3007 3009 3014 3017 3018 3023 3029 3036 3029 3033 3029 3026 3030 3032 3035 3040 3040 3041 3043 3045 3046 3046 3046 3048 3047 3045 3045 3044 3043 3042 3043 3043 3042
2913 2923 2930 2938 2945 2951 2956 2961 2967 2971 2977 2983 2986 2989 2994 2998 3000 3005 3007 3014 3025 3023 3021 3026 3027 3026 3026 3031 3035 3036 3038 3039 3039 3042 3043 3043 3042 3042 3043 3040 3041 3041 3041 3037 3030 3025 3019
2898 2907 2914 2924 2932 2939 2944 2948 2954 2959 2964 2968 2974 2978 2981 2984 2987 2991 2999 3006 3010 3009 3013 3016 3022 3022 3024 3027 3029 3032 3034 3036 3037 3038 3038 3037 3035 3037 3036 3037 3034 3036 3037 3035 3028 3020 3017
2882 2893 2902 2912 2918 2926 2930 2936 2943 2947 2952 2956 2962 2967 2973 2977 2983 2988 2994 2999 3001 3006 3009 3014 3017 3021 3022 3024 3025 3027 3030 3031 3033 3034 3036 3033 3029 3032 3032 3032 3033 3033 3032 3035 3029 3025 3017
2867 2879 2888 2895 2905 2915 2921 2924 2927 2937 2941 2949 2959 2965 2969 2976 2979 2984 2992 2992 2996 3001 3005 3007 3012 3018 3020 3020 3022 3026 3027 3027 3027 3028 3027 3026 3021 3025 3026 3026 3031 3034 3033 3031 3030 3023 3013
2855 2867 2876 2884 2893 2901 2912 2916 2920 2927 2938 2948 2956 2962 2965 2973 2976 2981 2986 2991 2992 2998 3002 3007 3012 3014 3017 3017 3018 3023 3024 3027 3025 3026 3026 3025 3023 3020 3024 3025 3022 3027 3028 3031 3027 3024 3011
2846 2858 2867 2875 2884 2891 2899 2908 2917 2926 2932 2940 2951 2960 2963 2969 2976 2976 2983 2989 2991 2997 2999 3004 3009 3010 3012 3015 3016 3019 3019 3023 3024 3024 3025 3024 3020 3015 3019 3022 3022 3021 3020 3022 3021 3016 3012
2838 2848 2859 2866 2877 2886 2895 2904 2912 2919 2927 2932 2939 2953 2961 2967 2970 2975 2981 2986 2989 2995 2999 3001 3007 3009 3010 3010 3015 3014 3017 3020 3017 3019 3016 3016 3016 3015 3007 3016 3015 3013 3012 3011 3008 3008 3001
2835 2846 2854 2863 2875 2883 2893 2902 2909 2917 2924 2931 2936 2949 2958 2963 2966 2973 2979 2982 2987 2991 2994 2998 3003 3005 3006 3008 3010 3007 3012 3014 3013 3013 3014 3013 3014 3015 3013 3009 3013 3010 3003 3000 3000 2996 2993
2843 2851 2860 2868 2876 2886 2895 2903 2909 2916 2924 2931 2937 2946 2953 2957 2964 2970 2975 2979 2983 2986 2991 2992 2997 3001 3003 3003 3004 3005 3006 3010 3009 3009 3009 3010 3007 3009 3007 3006 3005 3003 2998 2994 2993 2986 2982
2851 2859 2868 2875 2883 2892 2900 2908 2914 2919 2926 2934 2940 2946 2952 2959 2963 2966 2971 2975 2980 2985 2988 2992 2993 2996 2998 2997 2999 2999 2999 3002 3001 3002 3002 3002 2998 3002 2998 2999 2998 2991 2987 2987 2983 2977 2970
2860 2867 2876 2882 2888 2898 2905 2913 2915 2921 2927 2931 2938 2948 2952 2956 2960 2965 2967 2972 2977 2981 2987 2988 2990 2992 2994 2996 2997 2995 2993 2994 2994 2994 2995 2996 2994 2995 2988 2990 2990 2976 2977 2978 2977 2968 2965
2868 2873 2881 2889 2897 2903 2910 2914 2920 2925 2928 2932 2938 2946 2950 2953 2958 2961 2965 2971 2977 2977 2983 2987 2987 2988 2990 2989 2989 2989 2987 2986 2987 2985 2986 2985 2985 2987 2982 2983 2979 2953 2968 2966 2967 2959 2954
2875 2880 2887 2895 2902 2907 2913 2919 2922 2924 2927 2932 2938 2945 2949 2954 2956 2958 2962 2969 2974 2973 2977 2981 2982 2982 2982 2983 2986 2984 2980 2979 2976 2975 2976 2977 2975 2976 2979 2973 2963 2956 2956 2956 2955 2950 2947
2877 2883 2892 2899 2906 2912 2916 2921 2921 2925 2928 2933 2938 2942 2947 2951 2955 2960 2963 2966 2971 2971 2973 2975 2979 2977 2979 2981 2981 2977 2974 2972 2969 2969 2970 2971 2969 2968 2967 2961 2955 2949 2948 2949 2948 2941 2947
2882 2889 2896 2903 2908 2913 2918 2921 2923 2925 2930 2936 2940 2943 2945 2950 2955 2959 2963 2963 2965 2965 2967 2970 2973 2974 2975 2974 2973 2972 2967 2967 2965 2964 2965 2964 2962 2958 2957 2955 2947 2944 2944 2943 2942 2939 2936
2889 2895 2903 2908 2914 2915 2917 2920 2924 2927 2932 2936 2940 2939 2944 2949 2953 2954 2954 2956 2960 2963 2963 2967 2970 2969 2969 2967 2966 2965 2962 2960 2960 2958 2958 2958 2956 2954 2950 2947 2938 2938 2937 2939 2936 2931 2928
2895 2901 2907 2909 2911 2915 2919 2922 2925 2928 2932 2935 2937 2941 2943 2946 2948 2948 2950 2953 2957 2958 2959 2959 2961 2961 2962 2962 2960 2959 2957 2954 2955 2952 2952 2951 2951 2950 2950 2944 2939 2933 2933 2930 2927 2925 2925
Wind_Speed
53 50 49 48 44 41 38 36 35 34 34 33 32 33 33 32 32 31 31 30 27 25 25 24 26 29 25 26 23 25 18 17 15 14 13 15 20 14 17 17 17 22 23 25 24 25 25
55 54 50 50 48 43 41 38 36 36 36 36 34 34 34 33 34 33 32 30 28 24 25 26 26 28 28 27 21 22 21 19 20 21 19 20 17 16 21 20 20 18 21 24 24 24 24
56 55 53 52 51 47 43 40 38 38 38 38 37 34 35 35 35 35 33 32 29 27 26 27 26 27 31 28 22 25 22 23 22 23 25 22 23 21 20 16 15 18 25 26 27 27 29
57 56 55 54 53 49 45 42 39 39 40 40 39 36 35 36 35 35 34 33 32 30 30 29 30 33 32 26 27 24 24 21 22 20 20 19 19 23 24 22 24 24 25 29 24 22 22
56 57 57 55 54 52 47 44 41 40 41 42 41 39 36 37 36 36 36 35 33 34 33 33 31 32 32 28 25 26 22 20 21 20 18 17 18 18 17 19 22 22 30 27 24 20 16
56 56 56 56 55 53 50 47 43 42 43 43 44 42 40 38 39 39 38 37 38 36 36 36 33 30 23 24 22 22 21 19 19 19 18 18 16 15 16 18 27 21 23 25 24 18 19
62 59 56 56 56 55 54 51 47 46 46 45 45 46 44 42 41 42 40 36 38 41 41 37 27 29 18 15 20 21 24 27 29 27 27 19 21 21 19 20 24 27 29 32 31 27 29
65 66 62 60 59 57 57 56 52 52 51 50 48 47 46 46 41 45 41 41 39 41 38 38 38 37 33 33 35 29 34 32 29 31 21 23 32 26 23 23 26 28 30 33 35 28 29
56 60 63 65 62 60 60 59 59 56 55 54 50 50 50 49 48 46 47 47 47 45 43 44 42 39 34 35 39 32 30 28 29 26 24 28 25 20 26 25 26 26 29 29 33 29 33
61 61 57 58 67 57 60 61 63 60 59 57 56 53 52 56 55 51 55 56 55 41 27 35 26 37 36 34 39 30 33 29 23 26 22 25 26 29 28 29 28 39 25 30 30 29 32
45 48 62 53 60 56 67 68 66 66 63 61 58 53 59 55 63 56 57 51 43 41 4 8 19 15 16 23 15 15 23 18 22 18 16 14 8 9 14 16 16 28 20 22 27 30 27
59 44 44 44 41 42 45 59 74 66 66 63 61 57 60 58 60 58 57 53 43 16 10 12 13 17 18 19 16 8 11 17 13 14 19 23 23 17 16 17 19 20 20 22 26 29 19
78 72 62 53 45 46 49 44 58 62 59 61 61 59 61 62 65 65 62 45 18 9 9 13 13 14 16 12 14 15 13 12 11 12 18 19 20 18 19 22 19 15 18 12 11 15 17
69 64 70 61 58 50 53 45 60 59 57 59 66 68 67 55 56 52 46 36 8 17 16 10 13 14 16 16 14 14 13 15 15 17 18 21 19 12 15 14 15 18 17 15 14 14 18
66 65 57 57 51 54 50 51 61 64 63 64 62 54 42 37 37 43 38 21 15 10 17 15 11 11 13 14 14 9 15 16 15 13 16 13 16 14 11 15 9 12 18 20 19 30 24
73 67 62 61 58 56 53 62 55 66 61 49 34 30 28 27 27 26 24 14 11 12 17 20 14 9 11 16 14 12 12 6 8 7 9 9 21 15 22 20 20 16 18 17 22 15 22
64 60 57 53 53 53 56 59 65 61 41 33 33 31 28 27 21 24 24 14 11 13 16 16 13 11 7 7 11 12 6 10 7 11 11 10 12 25 21 21 24 23 28 24 15 15 10
52 48 46 46 49 58 60 54 43 42 44 37 33 25 26 27 23 21 20 16 10 9 16 20 18 12 11 11 14 16 15 15 8 11 17 15 21 28 27 27 28 30 31 28 26 24 25
49 56 58 55 54 48 42 46 45 42 38 39 35 28 26 26 19 19 18 16 9 9 7 6 7 9 9 10 9 12 17 15 13 12 11 12 8 17 27 30 27 35 36 39 43 46 39
38 38 38 43 40 43 42 41 40 38 41 35 34 22 28 26 20 19 16 18 15 18 14 11 12 11 9 11 14 13 12 11 11 12 19 20 17 22 22 32 34 41 44 42 40 37 32
26 24 25 29 32 36 40 41 38 35 32 29 28 18 22 29 27 22 20 13 20 16 16 17 15 15 13 14 16 21 17 17 15 16 16 15 23 27 33 37 34 37 42 42 44 46 45
30 22 25 34 37 36 34 33 30 29 28 23 19 15 16 11 16 20 19 18 13 14 12 11 12 8 8 12 9 15 18 18 20 20 23 23 33 30 39 39 42 46 50 45 47 47 49
31 33 32 32 33 32 31 30 27 27 20 14 15 15 15 16 13 16 20 18 15 12 12 12 12 13 15 17 16 17 16 19 22 21 23 23 24 26 35 34 35 40 43 39 43 44 45
33 32 29 27 27 27 26 25 22 17 14 14 14 14 17 15 17 17 11 12 13 13 15 13 12 13 13 15 16 18 21 24 24 27 25 28 27 29 34 32 23 51 34 36 40 33 34
16 16 22 21 17 18 16 18 16 13 14 16 16 16 15 10 11 11 15 14 13 12 13 16 17 12 15 13 13 13 14 16 21 21 23 25 31 34 32 32 36 45 38 35 29 41 27
12 12 14 16 19 18 16 15 14 15 17 16 18 18 15 13 12 9 13 14 15 12 11 12 12 15 21 10 12 16 11 15 12 15 12 17 27 36 32 17 18 37 33 24 30 36 37
20 19 18 18 16 16 16 16 17 17 16 14 12 14 17 16 11 13 14 13 12 11 9 11 12 13 13 16 17 21 23 21 25 26 28 28 22 19 27 29 28 33 28 22 27 31 23
20 19 19 17 18 17 17 15 14 13 12 13 9 11 12 16 11 16 14 10 9 14 15 12 11 13 14 14 13 17 19 23 24 28 30 25 15 19 15 17 17 12 20 18 23 27 24
13 14 13 13 14 14 14 14 12 12 12 13 9 10 12 12 12 14 15 19 18 15 14 16 17 12 9 9 9 9 13 21 15 21 15 11 10 14 8 17 30 19 25 29 24 21 24
Wind_Direction
244 243 244 245 243 248 250 253 255 257 257 255 256 259 261 264 267 269 272 275 280 280 283 285 291 296 297 290 291 271 287 280 279 282 278 280 279 267 269 268 261 253 266 263 268 270 271
246 245 242 245 244 244 249 251 253 255 256 254 254 257 261 263 265 266 269 272 275 275 280 291 294 293 296 286 288 284 282 280 281 282 277 278 277 269 260 260 262 260 258 259 263 267 265
246 247 243 242 245 243 246 250 251 255 255 254 254 254 259 261 264 266 268 271 270 271 275 285 299 294 289 294 280 284 283 278 279 279 283 279 256 255 262 271 274 271 268 268 261 265 268
244 244 244 244 242 242 244 247 252 254 255 255 256 254 255 260 262 266 269 270 272 273 277 280 291 296 287 289 289 284 280 279 274 276 278 279 266 258 255 262 259 264 265 268 272 263 267
243 243 244 242 243 242 243 247 249 253 255 256 256 256 254 257 260 263 267 268 269 272 276 283 286 285 286 283 282 273 275 272 268 272 268 274 273 269 264 259 268 258 258 261 269 263 253
242 243 243 243 241 242 242 245 246 251 254 255 256 256 255 255 258 261 264 267 270 274 274 277 275 277 279 268 261 265 273 266 271 264 269 277 274 261 256 239 250 268 262 260 259 266 252
242 242 241 241 240 239 240 242 245 248 251 251 253 256 257 256 259 260 261 268 272 276 271 270 267 259 249 262 247 258 249 273 271 261 258 255 252 245 252 251 263 269 273 277 278 279 283
244 240 240 239 238 238 239 240 243 247 249 250 250 253 255 257 258 261 264 266 271 262 261 266 270 259 257 251 259 253 258 263 261 262 258 248 244 245 256 261 267 272 276 276 280 282 279
238 240 244 238 238 237 238 240 243 245 248 249 249 254 252 257 254 261 264 268 263 259 255 262 263 265 256 254 259 254 252 250 248 255 249 250 250 253 256 266 257 267 270 273 275 284 283
248 248 248 245 241 238 240 239 243 244 246 248 250 247 248 253 257 257 259 263 258 244 252 258 249 250 250 252 254 250 244 243 237 250 261 262 263 253 256 258 259 271 272 276 278 285 282
239 240 244 247 247 242 245 239 241 243 246 249 250 250 253 249 248 259 258 246 235 238 249 258 199 207 224 218 224 252 231 235 231 234 255 242 257 251 249 253 256 273 276 274 279 274 283
239 240 238 236 247 246 244 246 245 249 251 251 252 255 251 250 251 253 249 243 230 191 228 213 208 209 200 211 209 210 244 232 223 241 242 255 249 268 269 271 268 274 285 286 274 270 263
258 255 259 257 260 253 245 247 249 247 251 250 252 253 248 247 250 250 248 223 180 204 198 200 206 190 198 209 217 218 229 233 237 247 268 271 266 275 264 268 270 276 271 279 263 237 240
242 245 253 260 262 260 256 255 247 253 249 246 245 241 239 235 227 231 218 196 187 209 178 167 198 201 205 196 215 223 236 243 243 254 269 274 275 253 261 273 276 265 276 276 291 287 291
232 235 239 243 246 244 245 254 244 239 230 237 235 222 209 213 219 219 192 180 197 167 202 200 183 202 215 207 205 210 233 245 253 253 282 282 262 265 292 284 299 285 271 278 302 291 290
228 232 236 231 237 236 234 234 235 226 229 208 192 189 188 192 186 177 171 194 191 180 187 183 183 215 237 218 215 229 231 218 201 238 263 262 290 264 273 277 274 278 290 298 286 282 273
223 222 224 227 231 229 233 235 233 218 194 179 181 177 185 186 180 175 191 197 188 204 201 200 212 223 223 235 225 241 241 244 267 296 301 293 271 277 279 271 280 282 281 278 293 269 264
212 215 218 223 224 226 219 204 194 184 183 185 179 175 186 177 168 188 201 203 191 198 231 226 227 211 228 235 253 252 252 244 270 283 282 270 279 281 269 270 269 275 277 272 262 271 267
195 198 207 197 197 182 187 182 179 180 178 177 174 180 181 174 179 194 206 202 203 202 217 210 223 240 239 238 259 256 256 257 257 276 277 269 256 286 287 280 272 255 263 264 266 266 263
158 164 162 174 173 169 169 170 170 170 168 173 167 154 172 178 186 194 189 193 202 201 204 219 225 227 232 244 243 256 262 267 259 270 272 286 274 261 268 274 284 289 287 281 281 283 281
137 140 139 148 154 158 160 162 167 167 161 171 168 161 177 195 194 193 194 209 214 230 232 236 234 238 249 260 254 256 265 269 258 261 272 264 273 274 270 270 274 278 277 275 275 277 276
154 151 150 148 146 148 153 159 161 160 164 171 171 166 176 204 196 209 196 205 198 215 220 222 227 218 238 239 245 261 265 266 275 273 270 262 276 275 277 273 276 276 273 275 275 273 275
138 139 145 148 153 160 161 165 158 161 171 186 200 203 205 208 201 204 215 215 205 205 229 227 236 244 251 264 269 264 259 265 266 269 269 266 268 270 273 277 282 277 268 273 275 270 273
132 133 140 147 149 149 155 158 166 173 181 190 193 186 191 186 191 188 190 199 218 224 229 236 240 245 247 252 262 272 269 266 266 264 259 263 261 263 268 280 269 270 279 263 272 282 286
158 140 136 144 140 148 162 169 182 180 184 184 178 173 191 183 203 209 200 208 221 223 235 228 225 243 251 254 263 277 274 265 269 270 261 251 262 259 257 257 265 277 278 264 272 286 292
167 159 173 163 168 178 180 186 187 184 180 183 182 193 196 195 199 198 197 208 214 221 229 236 240 236 254 241 235 246 252 276 276 284 269 260 270 246 247 259 261 276 296 280 277 265 294
148 151 160 171 176 181 184 182 180 182 186 199 206 213 209 191 189 181 202 202 208 225 230 238 230 252 246 241 245 253 264 270 269 273 276 278 283 258 254 262 273 277 288 291 270 286 298
156 155 159 168 177 181 181 182 187 192 198 200 196 192 176 187 184 211 204 198 209 216 218 228 223 237 237 236 253 260 261 269 271 268 270 260 267 280 288 282 253 287 289 284 287 280 292
145 151 160 178 187 192 196 197 197 200 201 183 185 183 186 193 199 225 216 218 218 226 236 239 233 231 235 246 243 265 250 303 288 284 284 285 256 288 275 296 311 321 317 307 285 284 309